Location: Chevoux
(46.3801°N, 4.9476°E)
Time: 11:41:47
(UTC+00:00)

SR - All Passes

Search period start: 13 May 2021 00:00
Search period end: 23 May 2021 00:00
Orbit: 573 x 882 km, 66.7° (Epoch: 12 May)

Date Brightness Start Highest point End Pass type
(mag) Time Alt. Az. Time Alt. Az. Time Alt. Az.
13 May - 01:05:35 10° S 01:11:10 52° ESE 01:16:56 10° NE visible
13 May - 02:48:10 10° WSW 02:53:33 36° NW 02:59:00 10° NNE visible
13 May - 04:34:43 10° NW 04:37:27 13° NNW 04:40:12 10° N daylight
13 May - 08:02:55 10° NNW 08:06:58 19° NNE 08:10:51 10° ENE daylight
13 May - 09:44:28 10° NNW 09:50:12 70° NE 09:55:26 10° SE daylight
13 May - 11:27:41 10° WNW 11:31:39 20° WSW 11:35:25 10° SSW daylight
14 May - 00:16:45 10° SSE 00:21:38 29° ESE 00:26:40 10° NE visible
14 May - 01:57:42 10° SW 02:03:27 57° NW 02:09:20 10° NNE visible
14 May - 03:42:58 10° WNW 03:46:52 18° NNW 03:50:46 10° NNE daylight
14 May - 07:13:28 10° N 07:16:25 14° NNE 07:19:17 10° NE daylight
14 May - 08:54:45 10° NNW 09:00:10 41° NE 09:05:12 10° ESE daylight
14 May - 10:37:06 10° NW 10:42:15 38° WSW 10:47:01 10° S daylight
14 May - 23:28:57 10° SE 23:32:18 16° ESE 23:35:41 10° ENE visible
15 May - 01:07:43 10° SSW 01:13:34 86° ESE 01:19:33 10° NE visible
15 May - 02:51:37 10° W 02:56:25 25° NW 03:01:15 10° NNE visible
15 May - 04:39:20 10° NNW 04:40:45 11° NNW 04:42:10 10° N daylight
15 May - 06:24:10 10° N 06:25:43 11° NNE 06:27:16 10° NNE daylight
15 May - 08:05:09 10° NNW 08:09:57 26° NE 08:14:29 10° E daylight
15 May - 09:47:01 10° NW 09:52:39 71° WSW 09:57:49 10° SSE daylight
15 May - 11:32:29 10° W 11:33:34 11° W 11:34:39 10° WSW daylight
16 May - 00:18:17 10° S 00:23:51 49° ESE 00:29:33 10° NE visible
16 May - 02:00:44 10° WSW 02:06:10 37° NW 02:11:40 10° NNE visible
16 May - 03:47:10 10° NW 03:50:02 14° NNW 03:52:53 10° N daylight
16 May - 07:15:38 10° NNW 07:19:33 18° NNE 07:23:19 10° ENE daylight
16 May - 08:57:09 10° NNW 09:02:50 66° NE 09:08:02 10° SE daylight
16 May - 10:40:15 10° WNW 10:44:21 22° WSW 10:48:13 10° SSW daylight
16 May - 23:29:32 10° SSE 23:34:20 28° ESE 23:39:15 10° NE visible
17 May - 01:10:19 10° SW 01:16:05 60° NW 01:22:00 10° NNE visible
17 May - 02:55:27 10° WNW 02:59:27 18° NNW 03:03:27 10° NNE visible
17 May - 06:26:11 10° N 06:28:58 13° NNE 06:31:42 10° NE daylight
17 May - 08:07:27 10° NNW 08:12:48 39° NE 08:17:45 10° ESE daylight
17 May - 09:49:44 10° NW 09:54:56 40° WSW 09:59:43 10° S daylight
17 May - 22:41:54 10° SE 22:45:00 15° ESE 22:48:09 10° ENE visible
18 May - 00:20:23 10° SSW 00:26:13 82° ESE 00:32:12 10° NE visible
18 May - 02:04:09 10° W 02:09:01 26° NW 02:13:56 10° NNE visible
18 May - 03:51:45 10° NNW 03:53:18 11° NNW 03:54:52 10° N daylight
18 May - 05:36:58 10° N 05:38:16 11° NNE 05:39:34 10° NNE daylight
18 May - 07:17:50 10° NNW 07:22:33 25° NE 07:26:59 10° E daylight
18 May - 08:59:40 10° NW 09:05:19 76° WSW 09:10:28 10° SSE daylight
18 May - 10:44:37 10° W 10:46:17 11° W 10:47:55 10° WSW daylight
18 May - 23:31:00 10° S 23:36:32 47° ESE 23:42:11 10° NE visible
19 May - 01:13:18 10° WSW 01:18:47 39° NW 01:24:20 10° NNE visible
19 May - 02:59:37 10° NW 03:02:36 14° NNW 03:05:33 10° N visible
19 May - 06:28:20 10° NNW 06:32:08 18° NNE 06:35:46 10° ENE daylight
19 May - 08:09:49 10° NNW 08:15:28 62° NE 08:20:37 10° SE daylight
19 May - 09:52:49 10° WNW 09:57:02 23° WSW 10:01:00 10° SSW daylight
19 May - 22:42:20 10° SSE 22:47:01 26° ESE 22:51:50 10° NE visible
20 May - 00:22:55 10° SW 00:28:45 63° NW 00:34:39 10° NNE visible
20 May - 02:07:56 10° WNW 02:12:02 19° NNW 02:16:07 10° NNE visible
20 May - 05:38:55 10° N 05:41:32 13° NNE 05:44:06 10° NE daylight
20 May - 07:20:08 10° NNW 07:25:24 37° NE 07:30:17 10° ESE daylight
20 May - 09:02:22 10° NW 09:07:36 43° WSW 09:12:24 10° S daylight
20 May - 21:54:52 10° SE 21:57:43 14° ESE 22:00:34 10° ENE visible
20 May - 23:33:02 10° SSW 23:38:52 78° ESE 23:44:51 10° NE visible
21 May - 01:16:40 10° W 01:21:38 27° NW 01:26:36 10° NNE visible
21 May - 03:04:10 10° NNW 03:05:51 11° NNW 03:07:33 10° N visible
21 May - 04:49:46 10° N 04:50:49 10° NNE 04:51:50 10° NNE daylight
21 May - 06:30:33 10° NNW 06:35:08 24° NE 06:39:28 10° E daylight
21 May - 08:12:19 10° NW 08:17:57 80° WSW 08:23:05 10° SSE daylight
21 May - 09:56:55 10° WNW 09:58:59 12° W 10:00:59 10° SW daylight
21 May - 22:43:43 10° S 22:49:12 44° ESE 22:54:49 10° NE visible
22 May - 00:25:52 10° WSW 00:31:25 41° NW 00:37:00 10° NNE visible
22 May - 02:12:03 10° NW 02:15:10 14° NNW 02:18:14 10° N visible
22 May - 05:41:03 10° NNW 05:44:42 17° NNE 05:48:12 10° ENE daylight
22 May - 07:22:30 10° NNW 07:28:05 58° NE 07:33:12 10° SE daylight
22 May - 09:05:23 10° NW 09:09:43 24° WSW 09:13:45 10° SSW daylight
22 May - 21:55:07 10° SSE 21:59:42 25° ESE 22:04:23 10° NE visible
22 May - 23:35:32 10° SW 23:41:22 67° NW 23:47:19 10° NNE visible
